FW8481 Weather Reports


Display with metric or nautical units.
time (UTC)temp
F
wind
direction
speed
MPH
gust
MPH
rain 1hr
in
rain 24hr
in
rain mn
in
humidity
%
barometer
mb
20240225114523 51 290 8.0 19.0 0.00 0.00 0.00 11 1012.2
20240225114021 51 333 7.0 19.0 0.00 0.00 0.00 12 1012.2
20240225113522 50 294 7.0 14.0 0.00 0.00 0.00 12 1012.1
20240225113020 49 249 3.0 10.0 0.00 0.00 0.00 13 1012.1
20240225112519 48 257 4.0 10.0 0.00 0.00 0.00 13 1012.1
20240225112019 47 247 3.0 6.0 0.00 0.00 0.00 14 1012.1
20240225111539 46 234 2.0 8.0 0.00 0.00 0.00 14 1012.1
20240225111023 46 219 1.0 10.0 0.00 0.00 0.00 15 1012.1
20240225110519 45 290 2.0 12.0 0.00 0.00 0.00 15 1012.1
20240225110023 42 255 3.0 12.0 0.00 0.00 0.00 17 1012.0
20240225105522 40 207 1.0 7.0 0.00 0.00 0.00 21 1012.1
20240225105019 38 0 1.0 7.0 0.00 0.00 0.00 22 1012.1
20240225104523 36 241 1.0 4.0 0.00 0.00 0.00 26 1012.0
20240225104021 35 287 1.0 4.0 0.00 0.00 0.00 29 1012.0
20240225103521 35 0 2.0 4.0 0.00 0.00 0.00 29 1011.9
20240225103021 35 0 1.0 3.0 0.00 0.00 0.00 30 1011.9
20240225102521 35 132 0.0 3.0 0.00 0.00 0.00 29 1011.9
20240225102019 35 87 1.0 4.0 0.00 0.00 0.00 30 1012.0
20240225101527 35 199 1.0 5.0 0.00 0.00 0.00 31 1012.3
20240225101022 36 262 0.0 5.0 0.00 0.00 0.00 28 1012.0
20240225100522 37 288 1.0 5.0 0.00 0.00 0.00 28 1012.1
20240225100025 36 0 0.0 3.0 0.00 0.00 0.00 27 1012.1
20240225095522 36 0 1.0 4.0 0.00 0.00 0.00 28 1012.2
20240225095020 36 139 1.0 4.0 0.00 0.00 0.00 29 1012.2
20240225094518 36 292 1.0 3.0 0.00 0.00 0.00 28 1012.4
20240225094024 37 0 1.0 3.0 0.00 0.00 0.00 27 1012.3
20240225093520 38 220 0.0 2.0 0.00 0.00 0.00 24 1012.3
20240225093020 38 127 0.0 2.0 0.00 0.00 0.00 24 1012.3
20240225092519 37 0 1.0 4.0 0.00 0.00 0.00 27 1012.5
20240225092016 37 252 0.0 6.0 0.00 0.00 0.00 26 1012.7
20240225091520 38 290 0.0 6.0 0.00 0.00 0.00 26 1012.6
20240225091019 38 151 2.0 7.0 0.00 0.00 0.00 26 1012.7
20240225090519 38 315 0.0 7.0 0.00 0.00 0.00 25 1012.7
20240225090024 38 249 2.0 6.0 0.00 0.00 0.00 26 1012.5
20240225085519 38 108 1.0 4.0 0.00 0.00 0.00 26 1012.7
20240225085017 39 307 2.0 4.0 0.00 0.00 0.00 27 1012.9
20240225084530 39 122 1.0 8.0 0.00 0.00 0.00 24 1012.7
20240225084018 39 258 2.0 8.0 0.00 0.00 0.00 25 1013.1
20240225083517 38 0 2.0 5.0 0.00 0.00 0.00 26 1013.0
20240225083023 39 293 0.0 3.0 0.00 0.00 0.00 27 1013.0
20240225082520 39 123 1.0 4.0 0.00 0.00 0.00 25 1013.0
20240225082017 39 326 1.0 5.0 0.00 0.00 0.00 26 1013.1
20240225081524 38 124 2.0 5.0 0.00 0.00 0.00 25 1013.0
20240225081019 39 164 1.0 4.0 0.00 0.00 0.00 26 1013.3
20240225080519 40 21 1.0 4.0 0.00 0.00 0.00 26 1013.3
20240225080031 39 158 2.0 5.0 0.00 0.00 0.00 24 1013.2
20240225075519 40 137 1.0 5.0 0.00 0.00 0.00 22 1013.1
20240225075022 41 265 1.0 5.0 0.00 0.00 0.00 23 1013.4
20240225074527 42 70 0.0 4.0 0.00 0.00 0.00 23 1013.2
20240225074023 42 228 2.0 6.0 0.00 0.00 0.00 20 1013.3
20240225073520 42 330 0.0 6.0 0.00 0.00 0.00 21 1013.4
20240225073020 42 285 1.0 3.0 0.00 0.00 0.00 22 1013.3
20240225072519 42 246 0.0 3.0 0.00 0.00 0.00 21 1013.5
20240225072023 43 278 1.0 7.0 0.00 0.00 0.00 20 1013.5
20240225071518 43 0 1.0 7.0 0.00 0.00 0.00 20 1013.4
20240225071019 44 290 2.0 5.0 0.00 0.00 0.00 22 1013.5
20240225070521 44 210 1.0 3.0 0.00 0.00 0.00 20 1013.6
20240225070023 44 157 1.0 3.0 0.00 0.00 0.00 20 1013.5
20240225065518 45 0 0.0 4.0 0.00 0.00 0.00 19 1013.5
20240225065018 45 226 2.0 4.0 0.00 0.00 0.00 18 1013.6
20240225064525 45 278 2.0 4.0 0.00 0.00 0.00 19 1013.6
20240225064017 44 155 1.0 6.0 0.00 0.00 0.00 20 1013.6
20240225063518 44 0 2.0 6.0 0.00 0.00 0.00 20 1013.7
20240225063018 42 0 1.0 4.0 0.00 0.00 0.00 21 1013.6
20240225062519 42 223 1.0 3.0 0.00 0.00 0.00 22 1013.8
20240225062016 42 285 0.0 4.0 0.00 0.00 0.00 22 1013.8
20240225061524 42 176 1.0 4.0 0.00 0.00 0.00 21 1013.7
20240225061023 42 235 1.0 3.0 0.00 0.00 0.00 22 1013.8
20240225060516 42 0 1.0 4.0 0.00 0.00 0.00 22 1013.7
20240225060021 42 204 1.0 4.0 0.00 0.00 0.00 22 1013.7
20240225055516 41 195 1.0 3.0 0.00 0.00 0.00 23 1013.7
20240225055017 42 255 0.0 3.0 0.00 0.00 0.00 22 1013.8
20240225054528 42 268 1.0 3.0 0.00 0.00 0.00 22 1013.9
20240225054016 43 213 0.0 3.0 0.00 0.00 0.00 20 1013.9
20240225053517 43 0 1.0 3.0 0.00 0.00 0.00 21 1013.9
20240225053017 44 229 0.0 3.0 0.00 0.00 0.00 20 1013.9
20240225052516 44 278 0.0 5.0 0.00 0.00 0.00 18 1014.0
20240225052016 45 248 2.0 5.0 0.00 0.00 0.00 19 1014.0
20240225051532 45 0 1.0 3.0 0.00 0.00 0.00 18 1014.0
20240225051020 46 0 0.0 2.0 0.00 0.00 0.00 18 1013.9
20240225050520 47 247 1.0 5.0 0.00 0.00 0.00 18 1014.2
20240225050016 47 164 1.0 5.0 0.00 0.00 0.00 17 1014.1
20240225045516 46 140 2.0 5.0 0.00 0.00 0.00 18 1014.0
20240225045016 46 208 1.0 4.0 0.00 0.00 0.00 18 1014.2
20240225044520 47 128 1.0 4.0 0.00 0.00 0.00 17 1014.0
20240225044019 48 253 2.0 4.0 0.00 0.00 0.00 16 1014.3
20240225043518 49 0 0.0 4.0 0.00 0.00 0.00 14 1014.2
20240225043021 49 0 1.0 5.0 0.00 0.00 0.00 14 1014.3
20240225042518 48 253 1.0 13.0 0.00 0.00 0.00 13 1014.4
20240225042017 48 250 4.0 13.0 0.00 0.00 0.00 16 1014.6
20240225041518 47 243 1.0 4.0 0.00 0.00 0.00 15 1014.5
20240225041017 47 0 0.0 4.0 0.00 0.00 0.00 18 1014.6
20240225040519 47 0 0.0 3.0 0.00 0.00 0.00 18 1014.6
20240225040022 46 335 0.0 3.0 0.00 0.00 0.00 16 1014.5
20240225035518 46 0 0.0 3.0 0.00 0.00 0.00 17 1014.5
20240225035020 47 226 0.0 3.0 0.00 0.00 0.00 17 1014.5
20240225034520 46 0 0.0 2.0 0.00 0.00 0.00 18 1014.5
20240225034023 46 0 0.0 2.0 0.00 0.00 0.00 18 1014.6
20240225033520 47 340 0.0 2.0 0.00 0.00 0.00 18 1014.6
20240225033022 48 19 0.0 1.0 0.00 0.00 0.00 17 1014.6
20240225032519 48 0 0.0 1.0 0.00 0.00 0.00 16 1014.8
20240225032021 49 0 0.0 0.0 0.00 0.00 0.00 15 1014.9
20240225031520 50 0 0.0 1.0 0.00 0.00 0.00 15 1014.9
20240225031020 50 352 0.0 2.0 0.00 0.00 0.00 15 1015.1
20240225030521 51 344 0.0 2.0 0.00 0.00 0.00 14 1015.0
20240225030030 52 345 1.0 10.0 0.00 0.00 0.00 13 1015.1
20240225025518 53 295 4.0 10.0 0.00 0.00 0.00 13 1015.0
20240225025018 53 34 1.0 8.0 0.00 0.00 0.00 13 1015.0
20240225024528 53 229 3.0 8.0 0.00 0.00 0.00 12 1015.0
20240225024018 53 265 1.0 5.0 0.00 0.00 0.00 13 1015.1
20240225023519 53 225 1.0 8.0 0.00 0.00 0.00 13 1015.0
20240225023025 53 248 4.0 8.0 0.00 0.00 0.00 13 1014.9
20240225022522 53 263 2.0 15.0 0.00 0.00 0.00 12 1014.9
20240225022023 53 286 4.0 15.0 0.00 0.00 0.00 12 1014.8
20240225021523 53 187 3.0 8.0 0.00 0.00 0.00 13 1014.9
20240225021023 53 152 3.0 7.0 0.00 0.00 0.00 13 1014.9
20240225020521 53 149 0.0 7.0 0.00 0.00 0.00 13 1015.0
20240225020022 54 205 1.0 8.0 0.00 0.00 0.00 12 1015.1
20240225015524 54 166 2.0 8.0 0.00 0.00 0.00 13 1014.9
20240225015019 54 252 1.0 6.0 0.00 0.00 0.00 13 1014.9
20240225014523 54 255 1.0 7.0 0.00 0.00 0.00 13 1014.7
20240225014021 53 264 2.0 7.0 0.00 0.00 0.00 13 1014.8
20240225013518 53 164 1.0 5.0 0.00 0.00 0.00 13 1014.8
20240225013020 54 210 1.0 5.0 0.00 0.00 0.00 13 1014.8
20240225012521 54 0 2.0 5.0 0.00 0.00 0.00 13 1014.7
20240225012026 54 173 0.0 3.0 0.00 0.00 0.00 13 1014.6
20240225011521 54 68 0.0 3.0 0.00 0.00 0.00 12 1014.4
20240225011021 54 0 0.0 3.0 0.00 0.00 0.00 12 1014.4
20240225010520 55 108 0.0 3.0 0.00 0.00 0.00 11 1014.3
20240225010026 55 217 1.0 9.0 0.00 0.00 0.00 11 1014.2
20240225005519 56 0 0.0 9.0 0.00 0.00 0.00 11 1014.0
20240225005020 56 218 3.0 9.0 0.00 0.00 0.00 11 1014.0
20240225004533 56 289 2.0 8.0 0.00 0.00 0.00 11 1013.9
20240225004019 56 255 2.0 6.0 0.00 0.00 0.00 11 1014.0
20240225003519 57 212 2.0 11.0 0.00 0.00 0.00 11 1014.0
20240225003021 57 270 5.0 11.0 0.00 0.00 0.00 10 1013.9
20240225002518 57 281 2.0 5.0 0.00 0.00 0.00 10 1013.9
20240225002018 58 287 1.0 5.0 0.00 0.00 0.00 10 1013.9
20240225001525 58 216 0.0 5.0 0.00 0.00 0.00 11 1013.9
20240225001019 59 303 1.0 12.0 0.00 0.00 0.00 10 1013.8
20240225000518 59 300 3.0 12.0 0.00 0.00 0.00 10 1013.7
20240225000021 59 290 4.0 11.0 0.00 0.00 0.00 10 1013.7
20240224235522 59 300 6.0 11.0 0.00 0.00 0.00 9 1013.6
20240224235019 60 282 6.0 15.0 0.00 0.00 0.00 9 1013.6
20240224234523 60 224 5.0 15.0 0.00 0.00 0.00 9 1013.5
20240224234021 60 193 5.0 13.0 0.00 0.00 0.00 9 1013.5
20240224233521 60 326 4.0 12.0 0.00 0.00 0.00 10 1013.3
20240224233019 60 292 5.0 15.0 0.00 0.00 0.00 10 1013.4
20240224232521 61 294 6.0 16.0 0.00 0.00 0.00 10 1013.3
20240224232018 61 288 7.0 16.0 0.00 0.00 0.00 9 1013.2
20240224231529 61 287 7.0 16.0 0.00 0.00 0.00 9 1013.3
20240224231019 61 350 8.0 13.0 0.00 0.00 0.00 8 1013.3
20240224230520 61 282 5.0 15.0 0.00 0.00 0.00 10 1013.2
20240224230020 61 285 6.0 15.0 0.00 0.00 0.00 10 1013.2
20240224225518 61 289 9.0 15.0 0.00 0.00 0.00 9 1013.2
20240224225022 62 297 6.0 14.0 0.00 0.00 0.00 9 1013.3
20240224224523 62 317 6.0 14.0 0.00 0.00 0.00 9 1013.3
20240224224018 62 288 5.0 15.0 0.00 0.00 0.00 10 1013.3
20240224223525 62 309 5.0 15.0 0.00 0.00 0.00 10 1013.3
20240224223021 62 294 8.0 16.0 0.00 0.00 0.00 8 1013.3
20240224222521 62 304 8.0 16.0 0.00 0.00 0.00 8 1013.3
20240224222021 62 304 9.0 14.0 0.00 0.00 0.00 8 1013.3
20240224221520 62 310 6.0 17.0 0.00 0.00 0.00 9 1013.3
20240224221020 63 229 9.0 17.0 0.00 0.00 0.00 8 1013.4
20240224220519 62 275 8.0 15.0 0.00 0.00 0.00 9 1013.3
20240224220022 63 314 7.0 13.0 0.00 0.00 0.00 9 1013.3
20240224215520 63 273 6.0 13.0 0.00 0.00 0.00 8 1013.3
20240224215017 63 8 6.0 14.0 0.00 0.00 0.00 8 1013.2
20240224214531 63 342 5.0 14.0 0.00 0.00 0.00 9 1013.2
20240224214020 63 297 7.0 13.0 0.00 0.00 0.00 9 1013.3
20240224213519 63 307 6.0 13.0 0.00 0.00 0.00 9 1013.2
20240224213019 63 250 4.0 14.0 0.00 0.00 0.00 10 1013.0
20240224212521 63 289 7.0 16.0 0.00 0.00 0.00 8 1013.0
20240224212019 63 340 6.0 16.0 0.00 0.00 0.00 8 1013.0
20240224211521 63 259 5.0 10.0 0.00 0.00 0.00 10 1013.1
20240224211022 63 309 3.0 16.0 0.00 0.00 0.00 10 1013.1
20240224210520 62 248 5.0 16.0 0.00 0.00 0.00 11 1013.1
20240224210025 62 272 8.0 16.0 0.00 0.00 0.00 10 1013.1
20240224205520 62 263 7.0 15.0 0.00 0.00 0.00 11 1013.1
20240224205020 62 286 8.0 15.0 0.00 0.00 0.00 9 1013.1
20240224204522 62 295 7.0 15.0 0.00 0.00 0.00 9 1013.1
20240224204021 61 291 8.0 17.0 0.00 0.00 0.00 10 1013.3
20240224203522 61 296 10.0 17.0 0.00 0.00 0.00 11 1013.3
20240224203035 61 293 9.0 16.0 0.00 0.00 0.00 10 1013.3
20240224202519 62 323 7.0 16.0 0.00 0.00 0.00 12 1013.3
20240224202020 61 308 4.0 11.0 0.00 0.00 0.00 12 1013.3
20240224201523 61 301 5.0 13.0 0.00 0.00 0.00 10 1013.4
20240224201021 61 304 5.0 13.0 0.00 0.00 0.00 11 1013.5
20240224200520 61 295 7.0 17.0 0.00 0.00 0.00 11 1013.5
20240224200021 61 259 9.0 17.0 0.00 0.00 0.00 12 1013.5
20240224195520 60 285 6.0 17.0 0.00 0.00 0.00 12 1013.6
20240224195020 60 299 7.0 17.0 0.00 0.00 0.00 12 1013.7
20240224194518 60 295 8.0 13.0 0.00 0.00 0.00 11 1013.8
20240224194023 60 306 5.0 13.0 0.00 0.00 0.00 14 1013.9
20240224193520 60 300 6.0 13.0 0.00 0.00 0.00 12 1014.0
20240224193024 60 323 3.0 14.0 0.00 0.00 0.00 13 1014.1
20240224192522 60 281 6.0 14.0 0.00 0.00 0.00 13 1014.1
20240224192019 58 51 3.0 7.0 0.00 0.00 0.00 13 1014.4
20240224191528 58 0 0.0 4.0 0.00 0.00 0.00 12 1014.7
20240224191018 58 0 1.0 5.0 0.00 0.00 0.00 14 1014.7
20240224190520 57 19 2.0 8.0 0.00 0.00 0.00 14 1014.9
20240224190021 57 40 3.0 10.0 0.00 0.00 0.00 13 1015.1
20240224185518 57 43 3.0 10.0 0.00 0.00 0.00 14 1015.1
20240224185020 57 53 4.0 10.0 0.00 0.00 0.00 13 1015.2
20240224184522 57 339 2.0 10.0 0.00 0.00 0.00 12 1015.4
20240224184022 57 20 3.0 10.0 0.00 0.00 0.00 11 1015.4
20240224183520 57 78 4.0 10.0 0.00 0.00 0.00 12 1015.5
20240224183026 57 70 2.0 6.0 0.00 0.00 0.00 13 1015.7
20240224182522 57 5 2.0 5.0 0.00 0.00 0.00 14 1015.7
20240224182023 57 46 3.0 5.0 0.00 0.00 0.00 14 1015.6
20240224181525 56 53 2.0 6.0 0.00 0.00 0.00 17 1015.6
20240224181021 55 8 2.0 6.0 0.00 0.00 0.00 16 1015.7
20240224180520 55 38 4.0 6.0 0.00 0.00 0.00 16 1015.8
20240224180033 55 356 2.0 5.0 0.00 0.00 0.00 17 1015.8
20240224175520 54 53 2.0 6.0 0.00 0.00 0.00 17 1015.9
20240224175020 53 72 3.0 6.0 0.00 0.00 0.00 19 1015.9
20240224174521 53 91 2.0 5.0 0.00 0.00 0.00 17 1016.0
20240224174020 52 120 1.0 5.0 0.00 0.00 0.00 18 1016.0
20240224173523 52 50 2.0 5.0 0.00 0.00 0.00 19 1016.1
20240224173023 51 65 1.0 5.0 0.00 0.00 0.00 20 1016.2
20240224172526 50 59 3.0 8.0 0.00 0.00 0.00 21 1016.2
20240224172023 50 63 3.0 8.0 0.00 0.00 0.00 22 1016.3
20240224171518 50 55 3.0 7.0 0.00 0.00 0.00 22 1016.4
20240224171020 50 70 3.0 7.0 0.00 0.00 0.00 22 1016.3
20240224170520 51 35 3.0 7.0 0.00 0.00 0.00 22 1016.5
20240224170028 51 127 0.0 3.0 0.00 0.00 0.00 18 1016.6
20240224165520 51 56 1.0 3.0 0.00 0.00 0.00 18 1016.6
20240224165020 51 137 1.0 4.0 0.00 0.00 0.00 18 1016.6
20240224164521 50 158 2.0 4.0 0.00 0.00 0.00 18 1016.6
20240224164020 49 224 0.0 5.0 0.00 0.00 0.00 20 1016.7
20240224163521 48 0 2.0 6.0 0.00 0.00 0.00 21 1016.7
20240224163021 48 146 2.0 6.0 0.00 0.00 0.00 21 1016.7
20240224162520 47 91 2.0 8.0 0.00 0.00 0.00 21 1016.7
20240224162021 47 70 1.0 8.0 0.00 0.00 0.00 20 1017.0
20240224161525 46 266 3.0 9.0 0.00 0.00 0.00 20 1016.9
20240224161020 45 220 2.0 9.0 0.00 0.00 0.00 22 1017.1
20240224160520 45 127 2.0 6.0 0.00 0.00 0.00 22 1017.0
20240224160031 44 156 2.0 5.0 0.00 0.00 0.00 22 1017.1
20240224155518 43 138 2.0 6.0 0.00 0.00 0.00 24 1017.2
20240224155022 42 108 2.0 6.0 0.00 0.00 0.00 25 1017.3
20240224154521 42 131 1.0 6.0 0.00 0.00 0.00 24 1017.3
20240224154019 41 143 2.0 5.0 0.00 0.00 0.00 26 1017.7
20240224153523 41 179 2.0 5.0 0.00 0.00 0.00 26 1017.7
20240224153022 41 139 1.0 3.0 0.00 0.00 0.00 25 1017.7
20240224152524 40 75 1.0 4.0 0.00 0.00 0.00 25 1017.6
20240224152021 39 143 1.0 4.0 0.00 0.00 0.00 27 1017.7
20240224151532 38 0 2.0 4.0 0.00 0.00 0.00 27 1017.8
20240224151021 37 137 0.0 4.0 0.00 0.00 0.00 28 1017.8
20240224150520 37 134 1.0 4.0 0.00 0.00 0.00 28 1017.9
20240224150021 36 0 0.0 3.0 0.00 0.00 0.00 30 1017.8
20240224145521 36 149 1.0 5.0 0.00 0.00 0.00 29 1017.8
20240224145019 35 143 1.0 5.0 0.00 0.00 0.00 32 1017.8
20240224144534 34 131 0.0 4.0 0.00 0.00 0.00 32 1017.7
20240224144020 33 160 0.0 4.0 0.00 0.00 0.00 33 1017.8
20240224143522 32 131 1.0 4.0 0.00 0.00 0.00 35 1017.8
20240224143026 31 165 0.0 3.0 0.00 0.00 0.00 37 1017.8
20240224142520 29 166 1.0 3.0 0.00 0.00 0.00 40 1017.7
20240224142022 29 321 0.0 6.0 0.00 0.00 0.00 45 1017.7
20240224141521 28 0 2.0 6.0 0.00 0.00 0.00 43 1017.6
20240224141018 27 214 2.0 5.0 0.00 0.00 0.00 45 1017.6
20240224140520 25 165 0.0 5.0 0.00 0.00 0.00 47 1017.4
20240224140020 23 129 1.0 5.0 0.00 0.00 0.00 53 1017.4
20240224135525 22 167 1.0 3.0 0.00 0.00 0.00 56 1017.6
20240224135021 23 283 1.0 2.0 0.00 0.00 0.00 57 1017.7
20240224134528 22 108 1.0 2.0 0.00 0.00 0.00 56 1017.6
20240224134020 23 0 0.0 2.0 0.00 0.00 0.00 56 1017.6
20240224133520 23 63 0.0 4.0 0.00 0.00 0.00 55 1017.7
20240224133028 23 0 0.0 4.0 0.00 0.00 0.00 55 1017.6
20240224132520 23 295 2.0 4.0 0.00 0.00 0.00 55 1017.7
20240224132020 23 0 0.0 4.0 0.00 0.00 0.00 54 1017.6
20240224131522 23 0 2.0 4.0 0.00 0.00 0.00 54 1017.6
20240224131020 23 0 0.0 2.0 0.00 0.00 0.00 55 1017.5
20240224130519 23 283 0.0 3.0 0.00 0.00 0.00 55 1017.8
20240224130026 23 202 1.0 3.0 0.00 0.00 0.00 55 1017.6
20240224125519 23 295 0.0 3.0 0.00 0.00 0.00 56 1017.8
20240224125020 23 245 0.0 3.0 0.00 0.00 0.00 55 1017.5
20240224124523 23 0 0.0 4.0 0.00 0.00 0.00 54 1017.6
20240224124020 24 42 1.0 5.0 0.00 0.00 0.00 53 1017.4
20240224123522 23 316 3.0 5.0 0.00 0.00 0.00 54 1017.6
20240224123026 24 104 0.0 4.0 0.00 0.00 0.00 53 1017.4
20240224122518 24 141 0.0 3.0 0.00 0.00 0.00 53 1017.4
20240224122025 24 0 0.0 3.0 0.00 0.00 0.00 52 1017.4
20240224121528 24 0 0.0 2.0 0.00 0.00 0.00 52 1017.5
20240224121023 24 0 1.0 6.0 0.00 0.00 0.00 51 1017.5
20240224120525 24 0 0.0 6.0 0.00 0.00 0.00 50 1017.3
20240224120032 24 256 1.0 3.0 0.00 0.00 0.00 53 1017.4
20240224115517 24 0 0.0 4.0 0.00 0.00 0.00 53 1017.5
20240224115020 23 0 1.0 4.0 0.00 0.00 0.00 54 1017.5